CW0728 Weather Reports


time (UTC)temp
C
wind
direction
speed
KPH
gust
KPH
rain 1hr
cm
rain 24hr
cm
rain mn
cm
humidity
%
barometer
mb
20260503050053 6 315 0.0 0.0 0.00 0.28 0.00 93 1008.3
20260503044549 6 327 0.0 0.0 0.00 0.28 0.00 93 1008.4
20260503043030 6 327 0.0 0.0 0.00 0.28 0.00 93 1008.5
20260503041556 6 301 0.0 0.0 0.00 0.28 0.00 93 1008.5
20260503040032 6 53 0.0 0.0 0.00 0.28 0.28 93 1008.5
20260503034507 6 77 0.0 0.0 0.00 0.28 0.28 93 1008.4
20260503033043 6 96 0.0 0.0 0.03 0.28 0.28 92 1008.8
20260503031533 6 96 0.0 6.4 0.03 0.28 0.28 92 1008.9
20260503030007 6 331 0.0 3.2 0.03 0.28 0.28 92 1009.2
20260503024544 7 5 0.0 1.6 0.03 0.28 0.28 92 1009.2
20260503023020 7 90 0.0 4.8 0.00 0.25 0.25 92 1009.5
20260503021601 7 26 0.0 3.2 0.00 0.25 0.25 92 1009.4
20260503020033 7 47 0.0 4.8 0.00 0.25 0.25 92 1009.4
20260503014517 7 5 0.0 3.2 0.00 0.25 0.25 92 1009.6
20260503013100 7 36 0.0 1.6 0.00 0.25 0.25 91 1009.7
20260503011551 7 10 0.0 0.0 0.05 0.25 0.25 91 1009.6
20260503010037 7 21 0.0 0.0 0.08 0.25 0.25 90 1009.7
20260503004513 7 78 0.0 3.2 0.08 0.25 0.25 89 1009.6
20260503003049 7 107 0.0 0.0 0.08 0.25 0.25 89 1009.8
20260503001523 7 107 0.0 0.0 0.03 0.20 0.20 87 1009.6
20260503000014 8 107 0.0 1.6 0.00 0.18 0.18 86 1009.4
20260502234600 8 105 0.0 3.2 0.00 0.18 0.18 85 1009.2
20260502233037 8 90 0.0 3.2 0.00 0.18 0.18 85 1009.2
20260502231533 8 86 0.0 4.8 0.00 0.18 0.18 85 1009.3
20260502230006 8 131 0.0 3.2 0.00 0.18 0.18 86 1009.2
20260502224547 8 311 0.0 1.6 0.00 0.18 0.18 87 1009.2
20260502223028 8 9 0.0 0.0 0.00 0.18 0.18 86 1009.1
20260502221623 8 343 0.0 3.2 0.00 0.18 0.18 85 1009.2
20260502220056 9 340 0.0 3.2 0.00 0.18 0.18 83 1009.3
20260502214523 9 120 0.0 4.8 0.00 0.18 0.18 81 1009.3
20260502213101 9 296 0.0 1.6 0.00 0.18 0.18 80 1009.3
20260502211539 9 301 0.0 1.6 0.00 0.18 0.18 79 1009.6
20260502210014 9 259 0.0 0.0 0.00 0.18 0.18 79 1009.6
20260502204552 9 167 0.0 1.6 0.00 0.18 0.18 79 1009.2
20260502203030 9 161 0.0 3.2 0.00 0.18 0.18 78 1009.2
20260502201517 9 168 0.0 3.2 0.00 0.18 0.18 79 1009.3
20260502200121 9 169 0.0 4.8 0.00 0.18 0.18 78 1009.4
20260502194538 10 180 0.0 6.4 0.00 0.18 0.18 77 1009.6
20260502193009 10 199 0.0 4.8 0.00 0.18 0.18 80 1009.5
20260502191556 10 233 1.6 8.0 0.00 0.18 0.18 79 1009.7
20260502190031 10 177 0.0 6.4 0.00 0.18 0.18 79 1009.8
20260502184546 10 192 0.0 8.0 0.00 0.18 0.18 80 1010.0
20260502183034 10 134 1.6 8.0 0.00 0.18 0.18 85 1010.1
20260502181511 9 242 1.6 12.9 0.00 0.18 0.18 84 1010.2
20260502163047 8 198 0.0 3.2 0.00 0.18 0.18 88 1010.3
20260502161512 8 214 0.0 4.8 0.00 0.18 0.18 87 1010.4
20260502151559 8 150 0.0 6.4 0.03 0.18 0.18 88 1010.7
20260502123042 6 53 0.0 9.7 0.05 0.05 0.05 84 1011.2
20260502121519 6 100 0.0 11.3 0.05 0.05 0.05 84 1011.1
20260502114543 7 82 4.8 14.5 0.03 0.03 0.03 81 1011.8
20260502113035 7 54 0.0 3.2 0.00 0.00 0.00 78 1012.0
20260502111505 6 104 0.0 4.8 0.00 0.00 0.00 76 1011.8
20260502110051 6 88 0.0 1.6 0.00 0.00 0.00 78 1011.5
20260502104518 6 74 0.0 1.6 0.00 0.00 0.00 78 1011.4
20260502103101 6 101 0.0 0.0 0.00 0.00 0.00 78 1011.3
20260502101527 5 101 0.0 0.0 0.00 0.00 0.00 78 1011.0
20260502091510 4 103 0.0 3.2 0.00 0.00 0.00 77 1010.3
20260502090112 3 93 0.0 3.2 0.00 0.00 0.00 77 1010.6
20260502071527 3 331 0.0 0.0 0.00 0.00 0.00 79 1011.2
20260502070030 3 331 0.0 0.0 0.00 0.00 0.00 80 1011.2
20260502064604 3 331 0.0 0.0 0.00 0.00 0.00 80 1011.0
20260502063036 2 331 0.0 0.0 0.00 0.00 0.00 81 1010.8
20260502061501 2 331 0.0 0.0 0.00 0.00 0.00 81 1010.6
20260502060041 2 331 0.0 0.0 0.00 0.00 0.00 81 1010.6
20260502054529 2 331 0.0 0.0 0.00 0.00 0.00 81 1010.5
20260502053057 2 331 0.0 0.0 0.00 0.00 0.00 80 1010.4
20260502051533 2 331 0.0 0.0 0.00 0.00 0.00 79 1010.5